RH
77 70 90 64 65 58 71 45 33 31 32 35 28 28 20 16 15 17 18 18 18 20 23 22 20 21 22 26 36 40 30 25 25 23 26 26 18 24 27 33 33 34 32 32
72 85 84 70 76 72 67 51 45 37 39 41 31 26 22 23 20 19 19 19 23 22 22 30 28 25 24 23 23 23 23 26 26 28 24 18 29 30 33 32 32 34 40 36
85 84 92 85 70 88 80 73 72 46 46 33 39 28 24 24 23 24 22 20 26 31 31 28 22 19 19 21 20 23 26 30 30 22 23 35 30 33 36 38 37 39 42 47
79 96 84 84 91 93 90 85 84 66 42 37 31 32 31 29 34 30 27 32 33 30 22 19 20 21 22 24 25 30 30 27 20 33 32 31 34 49 73 66 49 44 45 54
88 83 98 93 91 100 89 65 52 50 49 36 34 38 37 34 31 30 35 33 28 21 20 25 26 22 19 20 22 21 19 27 32 28 34 33 58 80 89 91 98 56 49 58
94 89 93 98 96 62 66 61 54 45 43 43 38 37 41 37 42 37 35 28 24 28 27 25 17 13 14 16 20 30 32 26 34 36 40 48 67 58 64 94 77 100 80 68
97 97 92 63 44 51 48 42 44 46 44 40 42 41 39 48 41 36 34 31 28 29 30 29 25 28 30 28 24 25 35 37 36 37 41 81 73 68 73 93 100 73 57 73
44 42 39 41 46 48 49 48 45 49 45 43 48 48 46 43 33 28 26 28 28 26 30 24 22 21 25 31 37 42 40 40 47 60 66 88 100 100 97 100 60 58 76 86
41 43 45 47 46 47 49 46 45 47 50 49 44 35 36 34 30 22 18 17 18 19 21 20 28 36 43 40 39 41 39 43 73 100 100 100 100 78 51 49 56 63 69 80
50 53 54 52 49 46 46 42 38 39 40 36 27 22 22 21 20 20 20 21 24 28 34 40 84 99 95 92 88 86 83 89 100 100 100 98 72 55 47 57 65 72 81 99
38 37 39 40 39 32 27 27 26 25 24 25 26 26 26 28 32 35 36 37 37 38 38 46 42 46 90 100 100 100 100 100 100 87 86 74 51 58 56 54 60 70 91 68
24 24 24 24 25 26 27 28 28 31 36 39 43 48 44 43 45 47 51 54 55 53 74 93 91 92 99 100 100 100 99 96 94 82 52 52 54 46 58 64 80 100 98 83
33 34 34 37 40 39 42 43 45 50 50 50 53 62 58 57 56 56 62 79 96 96 97 100 100 96 81 81 84 92 89 76 65 51 58 67 63 63 70 83 100 100 98 100
40 44 47 47 50 51 53 53 57 59 62 72 61 65 78 70 62 57 62 62 63 62 57 69 78 71 59 73 77 84 73 61 49 46 47 48 46 60 77 95 100 89 73 71
40 41 43 47 49 49 53 56 59 58 62 70 60 86 46 87 59 50 48 47 48 50 55 61 66 66 64 64 76 60 67 70 76 82 93 96 95 99 100 99 90 86 81 82
31 31 27 26 33 37 36 36 38 42 41 39 40 41 37 37 44 55 53 42 44 47 46 54 54 69 86 94 100 85 94 85 98 100 100 100 98 89 60 56 53 60 62 58
38 37 39 49 57 50 44 51 58 55 49 52 60 63 66 65 67 67 72 70 62 62 68 68 79 82 70 79 67 76 81 90 96 97 79 66 65 60 62 69 64 55 52 52
59 59 56 46 54 58 67 71 72 77 78 77 80 80 89 95 89 80 78 75 70 65 65 67 67 54 54 63 62 50 48 55 56 62 58 68 61 56 58 57 55 54 54 68
48 58 58 58 66 76 81 78 75 76 80 88 77 76 91 98 100 100 92 98 98 96 88 80 72 68 75 81 84 74 63 57 57 58 54 51 52 52 54 63 62 64 62 58
80 73 64 62 63 61 76 78 75 68 67 63 68 72 72 74 78 85 84 82 79 81 84 78 73 73 77 79 63 56 57 54 51 53 52 53 50 46 45 44 46 47 53 56
86 78 94 93 78 81 77 68 61 64 75 78 72 68 68 65 66 76 78 73 72 75 77 80 80 77 68 60 51 47 52 45 54 57 50 50 42 45 50 49 48 50 49 46
67 57 55 52 54 61 55 47 43 41 39 41 43 40 44 46 48 47 45 38 38 38 37 38 43 48 44 40 42 48 61 74 68 81 66 48 45 43 43 45 45 49 50 48
94 86 76 80 62 61 51 46 41 38 42 45 46 48 49 51 53 56 58 57 56 53 47 45 44 42 43 46 53 63 69 67 63 60 57 48 45 45 47 50 57 64 65 64
60 64 63 55 60 63 64 48 43 57 80 80 70 62 55 60 70 67 63 66 74 73 64 61 63 65 66 67 70 71 68 71 66 56 55 55 57 53 56 51 53 58 59 53
100 100 94 58 56 50 51 62 71 65 56 51 47 47 50 50 51 53 52 57 60 59 60 59 61 70 72 73 71 68 74 67 62 63 65 62 64 58 53 55 56 57 56 52
100 100 100 65 58 50 55 61 61 58 63 61 57 60 63 66 71 75 81 84 85 85 82 77 65 56 55 53 47 43 38 36 37 36 35 38 40 42 42 41 32 29 30 32
Wind_Speed
66 65 63 61 61 59 62 60 60 60 61 62 63 66 67 64 60 62 65 65 66 66 68 67 65 66 66 68 71 72 73 70 68 63 57 56 48 32 20 13 12 7 7 12
66 65 65 63 64 63 63 62 65 63 66 64 65 67 68 65 62 63 65 64 63 62 62 62 64 68 71 72 73 73 69 66 59 53 53 40 24 15 9 9 2 5 7 10
65 63 63 64 63 65 67 65 71 66 68 65 64 65 68 64 62 63 62 61 62 60 62 66 69 71 73 74 71 66 60 53 53 47 29 18 12 7 4 3 3 3 5 12
66 66 64 64 66 68 69 71 73 68 65 64 64 62 63 61 61 62 60 60 61 62 63 66 68 69 69 66 60 56 54 52 34 19 14 11 10 9 9 6 5 7 12 13
66 65 68 67 69 72 74 66 63 63 63 62 62 61 62 59 59 57 57 60 61 60 56 56 59 63 62 59 55 47 32 18 14 14 15 13 11 10 4 3 6 10 10 14
68 68 69 70 73 64 62 61 61 60 60 59 57 56 57 57 56 54 58 57 52 47 46 42 40 35 27 20 14 12 13 14 17 15 14 12 8 4 1 4 6 8 11 13
71 72 70 65 59 56 56 55 54 54 54 50 50 51 48 49 51 48 47 45 44 39 36 35 23 11 6 6 9 13 17 18 16 12 13 4 3 1 3 5 11 9 9 14
51 50 48 46 47 48 48 48 47 45 44 41 40 40 40 43 45 44 38 32 33 29 29 25 14 4 6 11 15 18 16 15 12 9 7 3 2 5 8 10 11 10 12 16
32 33 35 36 36 35 34 34 31 30 31 32 34 33 29 29 29 27 23 19 16 14 9 5 5 13 14 13 12 11 11 8 7 5 4 7 9 13 15 13 13 13 17 18
17 19 21 22 23 24 25 25 24 22 22 22 22 18 17 17 15 12 10 7 3 6 11 16 16 12 9 11 9 7 8 9 7 9 11 13 16 20 18 18 17 19 19 21
18 18 17 16 16 14 12 13 12 12 11 9 7 7 4 2 2 4 6 8 9 9 8 8 8 4 2 3 7 9 12 14 16 17 20 23 23 23 23 23 22 23 24 27
8 7 7 6 5 5 6 7 8 8 7 5 6 6 6 6 8 7 7 7 5 5 6 6 9 9 10 12 15 17 18 22 24 25 25 24 25 26 27 29 31 32 33 33
12 12 12 12 12 11 10 9 9 9 9 10 10 9 8 8 8 9 9 10 12 13 14 15 17 17 19 20 22 24 27 29 30 30 29 30 30 30 31 33 32 35 38 40
9 10 10 9 9 10 9 9 9 10 10 11 13 13 15 17 17 16 18 20 20 19 17 19 21 22 23 24 27 29 29 30 33 35 37 36 35 36 38 37 42 42 45 45
7 8 8 9 10 12 14 16 16 18 18 19 19 21 16 21 23 19 22 25 28 27 27 29 31 32 33 34 35 33 36 38 44 43 45 47 49 47 51 54 54 55 57 59
15 16 16 17 17 18 22 20 21 24 24 24 26 31 27 30 32 33 34 36 35 37 37 38 40 42 44 45 47 46 47 48 49 52 53 53 54 56 57 59 61 61 63 64
23 22 21 25 22 26 31 31 29 28 30 31 34 38 40 39 38 40 43 46 47 47 45 47 47 45 46 48 52 52 54 54 56 57 58 58 61 65 66 66 66 67 70 73
34 33 33 36 37 36 39 41 41 41 43 43 46 46 48 49 51 53 54 53 52 52 53 53 54 55 54 55 57 59 59 60 61 62 64 65 65 66 67 69 71 75 77 78
42 42 41 43 45 44 53 51 50 49 51 52 51 52 55 57 58 61 59 60 61 62 63 61 63 62 63 66 68 68 69 70 71 73 74 74 74 76 77 79 81 81 82 84
46 47 47 48 47 46 56 56 56 54 55 59 60 61 62 64 64 67 67 68 68 68 69 69 70 70 71 74 75 74 75 76 78 80 82 83 84 86 87 89 90 90 90 91
55 55 56 58 55 55 62 62 61 61 58 60 63 65 66 69 70 72 73 73 73 74 76 78 80 81 81 81 81 82 83 84 88 88 89 90 92 92 95 98 99 97 97 97
68 68 70 70 71 72 75 74 73 72 73 75 75 74 74 74 75 77 79 81 83 85 89 90 91 92 92 91 92 93 93 96 98 98 101 99 99 102 103 102 102 101 102 103
78 79 77 79 83 83 82 83 84 83 80 80 80 83 83 85 88 91 93 93 94 95 97 97 97 99 103 103 102 103 105 105 105 106 108 110 112 113 111 109 109 111 113 112
87 89 88 89 88 89 90 90 90 88 87 89 90 92 94 95 96 98 99 100 101 104 106 106 107 108 109 113 114 115 115 115 115 116 118 119 120 121 121 118 116 117 119 118
93 98 101 94 96 96 94 95 96 96 98 100 102 102 101 102 103 105 107 109 111 112 114 116 119 119 120 121 122 124 125 124 124 126 128 129 128 127 125 125 128 127 125 122
103 107 107 103 105 103 100 104 107 106 107 107 108 109 110 111 113 115 116 117 119 121 123 124 124 122 123 125 126 127 126 126 126 125 126 128 128 127 126 123 122 124 121 122
Wind_Direction
238 241 248 252 257 260 262 262 264 265 268 271 268 270 274 275 277 279 277 278 281 281 280 282 282 283 285 285 285 286 289 293 294 292 292 295 294 286 279 279 275 274 323 344
240 243 248 252 256 260 263 266 268 269 271 274 273 273 277 278 279 278 277 277 279 282 285 285 284 285 285 285 285 286 289 290 288 290 293 290 274 266 258 263 240 11 5 6
242 246 249 254 259 263 267 268 271 273 274 271 272 274 274 279 279 278 279 280 285 285 284 284 286 285 284 284 284 286 285 284 287 288 281 262 240 233 164 126 71 39 18 28
244 250 253 258 260 265 267 270 274 272 270 270 270 272 275 278 277 278 281 284 283 283 285 285 286 285 283 281 281 281 282 284 280 260 240 211 177 136 119 95 57 17 26 17
246 249 255 257 262 265 269 267 268 268 269 271 273 274 277 279 279 282 283 282 283 284 286 288 287 283 280 278 277 278 273 256 239 210 184 169 142 140 89 44 37 16 12 8
247 251 256 258 264 260 261 263 266 270 273 275 275 275 276 280 280 279 280 280 282 285 286 293 292 284 278 272 259 237 224 194 179 173 152 148 160 165 172 26 3 337 334 347
249 252 255 253 252 257 262 267 271 274 275 277 278 277 275 276 276 277 277 279 283 278 285 290 293 285 254 224 197 176 162 166 155 151 158 140 195 247 335 338 319 310 334 342
242 244 247 253 258 263 267 270 272 273 272 271 270 270 272 277 279 279 278 275 276 281 281 275 272 235 158 152 148 152 145 138 140 160 183 206 323 291 268 292 299 314 329 328
247 253 259 262 263 264 264 262 262 260 263 268 273 277 276 276 276 275 274 275 270 267 258 253 136 117 113 129 134 140 148 149 179 210 277 283 278 278 284 282 294 301 313 321
239 242 240 239 242 246 254 260 265 268 267 269 269 270 266 269 274 279 277 274 246 156 135 130 129 116 129 143 151 168 193 211 244 276 262 267 272 289 280 285 284 293 306 309
224 231 235 242 247 251 251 254 251 245 237 244 250 255 263 290 28 78 104 112 110 117 126 136 154 172 153 204 226 238 257 261 270 265 269 273 280 277 275 275 279 294 300 304
177 179 182 186 187 185 178 180 180 173 170 170 172 170 160 157 151 150 155 154 169 187 200 213 214 225 255 270 271 271 267 267 269 273 277 274 272 269 274 278 287 297 298 300
119 125 131 137 142 148 148 156 167 180 188 188 191 201 216 215 215 212 214 227 234 243 247 242 249 258 260 262 264 266 270 272 273 271 271 272 271 272 275 278 282 287 294 293
138 147 152 164 171 174 180 194 211 224 234 243 236 240 254 263 255 254 250 246 249 256 260 263 257 261 273 274 278 277 279 275 273 273 278 276 274 276 276 276 287 291 291 293
217 217 222 230 233 240 238 234 243 246 248 262 262 255 270 262 270 274 266 267 275 277 275 276 279 280 281 281 286 280 283 286 291 292 292 288 285 286 288 289 289 290 293 294
280 270 269 261 256 266 269 267 273 271 272 270 278 275 273 270 271 275 278 281 282 281 277 275 279 279 278 278 281 281 280 282 285 286 288 288 286 285 285 285 285 286 288 290
271 270 271 271 271 274 271 272 271 270 265 267 271 274 278 276 275 276 277 276 273 274 275 275 276 277 276 269 275 274 277 277 278 280 282 282 281 281 282 282 282 283 286 290
268 268 267 265 267 271 268 267 269 271 273 273 272 275 278 279 279 278 277 278 277 277 278 278 278 276 277 279 279 277 277 278 279 281 281 281 281 282 283 283 284 284 286 287
275 274 273 273 274 275 273 274 276 277 277 273 273 276 277 276 276 274 274 275 275 274 276 275 275 275 277 279 282 282 283 283 284 284 284 282 280 280 281 282 284 285 287 288
273 274 273 272 273 273 273 276 277 277 277 279 280 279 279 280 280 280 279 279 278 278 277 277 277 277 276 278 279 281 283 284 285 285 285 285 285 284 285 285 286 286 286 286
274 276 273 272 273 272 272 273 275 276 276 278 280 281 282 282 282 282 283 283 282 281 280 279 278 278 279 279 279 280 280 281 285 288 288 288 286 287 289 286 284 285 285 285
274 277 277 275 275 278 278 278 279 279 278 277 277 277 277 278 278 279 280 283 283 283 283 282 281 281 281 281 282 282 282 284 284 285 286 286 286 287 287 286 285 285 286 285
278 278 277 275 277 279 281 280 281 284 285 284 282 281 282 283 284 285 286 285 283 284 285 285 285 284 284 283 282 281 281 282 282 282 283 285 286 287 286 285 285 286 286 285
279 278 277 278 281 281 281 282 284 285 282 280 281 281 283 283 282 283 284 284 283 283 285 285 285 285 285 286 285 283 282 282 283 283 284 285 285 285 286 285 285 284 283 283
275 273 275 281 279 280 283 282 281 281 281 282 283 283 283 284 284 285 285 284 284 284 283 285 285 285 283 282 283 282 281 280 280 281 281 282 282 283 284 284 284 285 283 282
270 266 270 275 277 280 280 280 281 282 283 284 284 282 282 283 284 285 284 284 284 284 283 284 285 284 284 284 284 283 281 280 279 280 280 280 280 280 281 282 283 283 281 281